YT1XN Weather Reports


time (UTC)temp
F
wind
direction
speed
knots
gust
knots
rain 1hr
in
rain 24hr
in
rain mn
in
humidity
%
barometer
mb
20260507210500 61 101 0.0 0.9 0.00 0.00 0.00 80 1016.7
20260507210005 61 101 0.0 1.7 0.00 0.00 0.00 80 1016.6
20260507205504 61 101 0.0 1.7 0.00 0.00 0.00 80 1016.5
20260507205002 61 101 0.0 1.7 0.00 0.00 0.00 80 1016.4
20260507204503 61 101 0.0 1.7 0.00 0.00 0.00 80 1016.4
20260507204003 61 101 0.0 0.9 0.00 0.00 0.00 80 1016.4
20260507203503 61 101 0.0 0.9 0.00 0.00 0.00 80 1016.3
20260507203003 61 101 0.0 1.7 0.00 0.00 0.00 80 1016.4
20260507202503 61 101 0.0 1.7 0.00 0.00 0.00 80 1016.3
20260507202004 61 5 0.0 0.9 0.00 0.00 0.00 80 1016.4
20260507201503 61 5 0.0 0.9 0.00 0.00 0.00 80 1016.3
20260507201002 61 5 0.0 0.9 0.00 0.00 0.00 79 1016.2
20260507200503 62 5 0.0 0.9 0.00 0.00 0.00 78 1016.2
20260507200003 62 5 0.0 0.9 0.00 0.00 0.00 78 1016.1
20260507195501 62 5 0.0 0.9 0.00 0.00 0.00 77 1016.1
20260507195003 62 5 0.0 0.0 0.00 0.00 0.00 77 1016.1
20260507194002 62 5 0.0 0.9 0.00 0.00 0.00 77 1016.0
20260507193503 62 5 0.0 0.9 0.00 0.00 0.00 76 1015.9
20260507193001 62 5 0.0 0.9 0.00 0.00 0.00 76 1015.8
20260507192503 62 5 0.0 0.9 0.00 0.00 0.00 76 1015.9
20260507192003 63 5 0.9 2.6 0.00 0.00 0.00 76 1015.9
20260507191502 63 5 0.9 2.6 0.00 0.00 0.00 76 1015.8
20260507190503 63 5 0.9 2.6 0.00 0.00 0.00 76 1015.8
20260507190005 63 10 0.9 2.6 0.00 0.00 0.00 76 1015.8
20260507185500 63 10 0.0 2.6 0.00 0.00 0.00 75 1015.8
20260507185000 63 5 0.0 2.6 0.00 0.00 0.00 75 1015.8
20260507184501 63 16 0.0 2.6 0.00 0.00 0.00 75 1015.8
20260507184003 63 274 0.0 0.0 0.00 0.00 0.00 75 1015.7
20260507183504 63 274 0.0 0.0 0.00 0.00 0.00 75 1015.7
20260507182503 64 274 0.0 0.0 0.00 0.00 0.00 75 1015.8
20260507182003 64 274 0.0 0.0 0.00 0.00 0.00 74 1015.7
20260507181003 64 274 0.9 3.5 0.00 0.00 0.00 73 1015.8
20260507180503 64 294 1.7 4.3 0.00 0.00 0.00 73 1015.8
20260507175500 64 298 0.9 4.3 0.00 0.00 0.00 73 1015.8
20260507175003 65 276 0.9 3.5 0.00 0.00 0.00 74 1015.8
20260507174503 65 275 0.9 3.5 0.00 0.00 0.00 74 1015.8
20260507174003 65 285 0.9 3.5 0.00 0.00 0.00 73 1015.8
20260507173000 65 294 1.7 3.5 0.00 0.00 0.00 73 1015.6
20260507172500 66 275 1.7 3.5 0.00 0.00 0.00 72 1015.6
20260507171003 66 258 1.7 2.6 0.00 0.00 0.00 71 1015.5
20260507170502 66 232 2.6 3.5 0.00 0.00 0.00 71 1015.4
20260507170003 67 246 2.6 5.2 0.00 0.00 0.00 71 1015.5
20260507165503 67 264 2.6 4.3 0.00 0.00 0.00 71 1015.5
20260507165000 67 264 1.7 2.6 0.00 0.00 0.00 69 1015.6
20260507164502 67 257 0.9 2.6 0.00 0.00 0.00 69 1015.3
20260507164001 68 281 0.9 2.6 0.00 0.00 0.00 68 1015.3
20260507163503 68 289 0.0 1.7 0.00 0.00 0.00 68 1015.2
20260507163003 68 279 0.9 5.2 0.00 0.00 0.00 67 1015.1
20260507162503 68 293 1.7 5.2 0.00 0.00 0.00 66 1015.2
20260507162003 68 287 1.7 3.5 0.00 0.00 0.00 66 1015.2
20260507161502 69 292 1.7 3.5 0.00 0.00 0.00 66 1015.1
20260507161003 69 286 1.7 3.5 0.00 0.00 0.00 65 1015.1
20260507160513 69 266 1.7 2.6 0.00 0.00 0.00 65 1015.1
20260507160004 69 250 1.7 3.5 0.00 0.00 0.00 65 1015.1
20260507155500 69 290 1.7 3.5 0.00 0.00 0.00 65 1015.1
20260507154503 70 259 2.6 7.8 0.00 0.00 0.00 63 1015.2
20260507154003 70 265 3.5 7.8 0.00 0.00 0.00 63 1015.2
20260507153003 70 270 3.5 7.8 0.00 0.00 0.00 63 1015.0
20260507152003 70 243 5.2 10.4 0.00 0.00 0.00 62 1015.1
20260507151502 70 250 5.2 10.4 0.00 0.00 0.00 61 1015.2
20260507151003 70 253 3.5 8.7 0.00 0.00 0.00 60 1015.2
20260507150503 71 269 3.5 7.8 0.00 0.00 0.00 62 1015.2
20260507150005 71 243 3.5 7.8 0.00 0.00 0.00 62 1015.1
20260507145503 71 254 0.9 6.1 0.00 0.00 0.00 63 1015.1
20260507145002 71 255 0.9 3.5 0.00 0.00 0.00 65 1015.0
20260507144500 71 269 1.7 3.5 0.00 0.00 0.00 63 1015.1
20260507144002 71 308 1.7 3.5 0.00 0.00 0.00 62 1015.1
20260507143500 71 246 1.7 6.1 0.00 0.00 0.00 63 1015.1
20260507143000 71 284 2.6 7.8 0.00 0.00 0.00 63 1015.0
20260507142502 72 241 2.6 7.8 0.00 0.00 0.00 62 1015.0
20260507142003 72 273 2.6 6.1 0.00 0.00 0.00 63 1015.1
20260507141500 72 264 2.6 6.1 0.00 0.00 0.00 62 1015.2
20260507141000 71 294 2.6 4.3 0.00 0.00 0.00 63 1015.3
20260507140000 70 284 1.7 4.3 0.00 0.00 0.00 65 1015.4
20260507135502 70 277 2.6 4.3 0.00 0.00 0.00 63 1015.4
20260507135003 70 252 2.6 6.1 0.00 0.00 0.00 64 1015.4
20260507134500 70 259 3.5 7.0 0.00 0.00 0.00 63 1015.4
20260507134003 70 257 4.3 8.7 0.00 0.00 0.00 65 1015.5
20260507133003 70 232 3.5 8.7 0.00 0.00 0.00 64 1015.5
20260507132003 70 267 3.5 7.8 0.00 0.00 0.00 65 1015.5
20260507131503 70 254 2.6 6.1 0.00 0.00 0.00 64 1015.5
20260507130503 70 270 3.5 7.0 0.00 0.00 0.00 64 1015.6
20260507125500 70 244 1.7 6.1 0.00 0.00 0.00 62 1015.6
20260507125001 71 262 2.6 7.8 0.00 0.00 0.00 61 1015.6
20260507124501 71 273 3.5 7.8 0.00 0.00 0.00 61 1015.6
20260507124000 72 236 2.6 7.0 0.00 0.00 0.00 60 1015.6
20260507123500 72 293 3.5 7.0 0.00 0.00 0.00 60 1015.6
20260507123000 72 219 4.3 8.7 0.00 0.00 0.00 57 1015.5
20260507122459 73 257 4.3 8.7 0.00 0.00 0.00 58 1015.6
20260507122000 73 250 4.3 8.7 0.00 0.00 0.00 57 1015.6
20260507121500 74 251 3.5 7.0 0.00 0.00 0.00 55 1015.7
20260507120459 75 246 3.5 7.0 0.00 0.00 0.00 54 1015.8
20260507115502 74 271 2.6 7.8 0.00 0.00 0.00 56 1015.8
20260507115003 74 232 2.6 7.8 0.00 0.00 0.00 55 1015.9
20260507114503 74 327 2.6 8.7 0.00 0.00 0.00 53 1016.0
20260507113500 73 222 1.7 6.1 0.00 0.00 0.00 55 1015.8
20260507113003 73 200 1.7 7.0 0.00 0.00 0.00 55 1015.8
20260507112503 73 227 1.7 7.0 0.00 0.00 0.00 56 1015.8
20260507112003 73 247 1.7 4.3 0.00 0.00 0.00 57 1015.9
20260507111503 72 51 0.9 2.6 0.00 0.00 0.00 56 1015.9
20260507111003 71 170 0.9 2.6 0.00 0.00 0.00 56 1015.9
20260507110503 71 252 0.9 3.5 0.00 0.00 0.00 57 1015.9
20260507110005 71 13 1.7 4.3 0.00 0.00 0.00 57 1015.9
20260507105504 71 273 2.6 7.0 0.00 0.00 0.00 57 1016.0
20260507105003 70 281 1.7 7.0 0.00 0.00 0.00 60 1016.1
20260507104502 70 182 1.7 6.1 0.00 0.00 0.00 60 1016.1
20260507104004 69 234 1.7 6.1 0.00 0.00 0.00 60 1016.1
20260507103503 69 185 3.5 8.7 0.00 0.00 0.00 59 1016.0
20260507103003 69 244 2.6 8.7 0.00 0.00 0.00 61 1016.0
20260507102503 68 240 0.9 3.5 0.00 0.00 0.00 66 1016.1
20260507102002 67 279 0.9 4.3 0.00 0.00 0.00 66 1016.1
20260507101503 66 250 0.9 4.3 0.00 0.00 0.00 68 1016.2
20260507101003 66 260 1.7 3.5 0.00 0.00 0.00 68 1016.3
20260507100503 65 225 1.7 3.5 0.00 0.00 0.00 67 1016.3
20260507100003 65 140 0.9 3.5 0.00 0.00 0.00 69 1016.4
20260507095502 65 140 0.0 3.5 0.00 0.00 0.00 68 1016.4
20260507095002 64 157 0.9 2.6 0.00 0.00 0.00 71 1016.4
20260507094503 64 227 0.0 2.6 0.00 0.00 0.00 71 1016.5
20260507093001 64 157 0.9 2.6 0.00 0.00 0.00 70 1016.5
20260507092004 63 186 0.0 1.7 0.00 0.00 0.00 71 1016.4
20260507091503 63 215 0.0 0.9 0.00 0.00 0.00 71 1016.4
20260507091002 63 232 0.0 2.6 0.00 0.00 0.00 71 1016.5
20260507090503 63 146 0.0 2.6 0.00 0.00 0.00 71 1016.4
20260507090000 63 152 0.0 2.6 0.00 0.00 0.00 71 1016.4
20260507085003 63 211 0.0 2.6 0.00 0.00 0.00 68 1016.3
20260507084503 63 213 0.9 2.6 0.00 0.00 0.00 70 1016.3
20260507084011 63 148 0.9 3.5 0.00 0.00 0.00 69 1016.3
20260507082503 63 206 0.9 3.5 0.00 0.00 0.00 73 1016.3
20260507082003 63 196 0.9 3.5 0.00 0.00 0.00 73 1016.4
20260507081504 62 209 1.7 5.2 0.00 0.00 0.00 73 1016.3
20260507081003 62 213 2.6 5.2 0.00 0.00 0.00 71 1016.4
20260507080501 62 227 2.6 5.2 0.00 0.00 0.00 73 1016.3
20260507080000 62 226 2.6 4.3 0.00 0.00 0.00 72 1016.3
20260507075500 63 217 1.7 4.3 0.00 0.00 0.00 72 1016.4
20260507075000 63 199 0.9 3.5 0.00 0.00 0.00 72 1016.4
20260507074500 63 244 0.9 3.5 0.00 0.00 0.00 72 1016.3
20260507074003 63 220 0.9 3.5 0.00 0.00 0.00 73 1016.3
20260507073500 63 219 0.9 5.2 0.00 0.00 0.00 73 1016.2
20260507073003 62 237 1.7 5.2 0.00 0.00 0.00 73 1016.2
20260507072503 62 221 1.7 3.5 0.00 0.00 0.00 75 1016.2
20260507071003 61 240 2.6 4.3 0.00 0.00 0.00 77 1016.2
20260507070006 61 247 2.6 5.2 0.00 0.00 0.00 77 1016.2
20260507065506 61 217 2.6 5.2 0.00 0.00 0.00 77 1016.4
20260507065003 61 222 2.6 6.1 0.00 0.00 0.00 76 1016.4
20260507064503 61 229 2.6 6.1 0.00 0.00 0.00 76 1016.3
20260507064003 61 236 2.6 6.1 0.00 0.00 0.00 76 1016.3
20260507063500 61 227 2.6 6.1 0.00 0.00 0.00 77 1016.3
20260507063004 61 232 2.6 5.2 0.00 0.00 0.00 76 1016.3
20260507062503 61 190 2.6 7.0 0.00 0.00 0.00 76 1016.2
20260507062004 61 233 3.5 7.8 0.00 0.00 0.00 76 1016.1
20260507061503 61 220 2.6 7.8 0.00 0.00 0.00 76 1016.1
20260507061001 61 249 2.6 5.2 0.00 0.00 0.00 76 1016.1
20260507060503 61 203 1.7 5.2 0.00 0.00 0.00 75 1016.1
20260507060004 61 209 0.9 3.5 0.00 0.00 0.00 75 1016.1
20260507055502 61 223 0.9 3.5 0.00 0.00 0.00 75 1016.2
20260507055002 62 223 0.0 1.7 0.00 0.00 0.00 74 1016.1
20260507054503 62 200 0.9 2.6 0.00 0.00 0.00 75 1016.1
20260507054003 62 229 0.9 7.0 0.00 0.00 0.00 75 1016.1
20260507053459 62 202 0.9 5.2 0.00 0.00 0.00 75 1016.1
20260507053004 62 205 0.9 6.1 0.00 0.00 0.00 75 1016.1
20260507052500 61 158 1.7 3.5 0.00 0.00 0.00 76 1015.9
20260507052000 61 139 0.9 3.5 0.00 0.00 0.00 77 1015.9
20260507051000 61 152 0.9 3.5 0.00 0.00 0.00 76 1015.9
20260507050503 61 162 0.9 4.3 0.00 0.00 0.00 76 1015.7
20260507050003 60 155 0.9 4.3 0.00 0.00 0.00 75 1015.8
20260507045004 60 147 0.0 2.6 0.00 0.00 0.00 76 1015.7
20260507043959 60 213 0.0 1.7 0.00 0.00 0.00 77 1015.7
20260507043504 60 213 0.9 3.5 0.00 0.00 0.00 77 1015.7
20260507043000 60 210 1.7 3.5 0.00 0.00 0.00 76 1015.7
20260507042503 60 244 1.7 3.5 0.00 0.00 0.00 75 1015.7
20260507041959 60 215 0.9 2.6 0.00 0.00 0.00 75 1015.6
20260507041500 61 218 0.9 2.6 0.00 0.00 0.00 75 1015.4
20260507041000 61 225 1.7 4.3 0.00 0.00 0.00 75 1015.3
20260507040504 61 217 1.7 4.3 0.00 0.00 0.00 75 1015.4
20260507040002 61 211 0.9 3.5 0.00 0.00 0.00 75 1015.3
20260507035500 61 216 0.0 3.5 0.00 0.00 0.00 75 1015.2
20260507035000 61 138 0.9 2.6 0.00 0.00 0.00 76 1015.1
20260507034502 61 138 1.7 3.5 0.00 0.00 0.00 76 1015.2
20260507034002 61 173 0.9 3.5 0.00 0.00 0.00 77 1015.0
20260507033459 60 142 0.9 2.6 0.00 0.00 0.00 77 1014.9
20260507033002 60 142 0.9 2.6 0.00 0.00 0.00 78 1015.0
20260507032000 60 223 0.0 0.9 0.00 0.00 0.00 79 1014.9
20260507031500 61 223 0.0 0.9 0.00 0.00 0.00 79 1014.8
20260507031000 61 223 0.0 0.9 0.00 0.00 0.00 79 1014.8
20260507030005 61 223 0.0 0.9 0.00 0.00 0.00 79 1014.8
20260507025000 61 223 0.9 2.6 0.00 0.00 0.00 79 1014.6
20260507024459 61 223 1.7 2.6 0.00 0.00 0.00 79 1014.6
20260507024000 61 234 0.9 2.6 0.00 0.00 0.00 79 1014.6
20260507023502 61 229 0.0 1.7 0.00 0.00 0.00 79 1014.6
20260507022959 61 240 0.0 0.9 0.00 0.00 0.00 79 1014.5
20260507022459 61 240 0.0 0.0 0.00 0.00 0.00 79 1014.4
20260507022003 61 240 0.0 0.9 0.00 0.00 0.00 79 1014.3
20260507021500 61 240 0.9 2.6 0.00 0.00 0.00 79 1014.3
20260507021000 61 241 1.7 3.5 0.00 0.00 0.00 79 1014.3
20260507020500 61 250 1.7 3.5 0.00 0.00 0.00 79 1014.3
20260507020003 61 262 1.7 3.5 0.00 0.00 0.00 80 1014.3
20260507015500 61 266 0.9 2.6 0.00 0.00 0.00 79 1014.2
20260507014959 61 263 0.0 1.7 0.00 0.00 0.00 79 1014.1
20260507014502 61 292 0.0 1.7 0.00 0.00 0.00 79 1014.2
20260507014000 61 292 0.0 1.7 0.00 0.00 0.00 78 1014.1
20260507013500 61 292 0.9 1.7 0.00 0.00 0.00 78 1014.0
20260507013003 61 292 0.0 1.7 0.00 0.00 0.00 78 1014.1
20260507012502 61 292 0.0 1.7 0.00 0.00 0.00 78 1014.1
20260507011959 61 290 0.0 2.6 0.00 0.00 0.00 78 1014.0
20260507011459 61 294 0.0 0.9 0.00 0.00 0.00 77 1013.9
20260507011002 61 296 0.0 0.9 0.00 0.00 0.00 77 1014.1
20260507010503 61 296 0.0 0.9 0.00 0.00 0.00 76 1013.9
20260507010003 61 296 0.0 0.9 0.00 0.00 0.00 76 1013.8
20260507005502 61 252 0.9 2.6 0.00 0.00 0.00 76 1013.8
20260507005002 62 252 1.7 2.6 0.00 0.00 0.00 75 1013.9
20260507004503 62 252 0.9 2.6 0.00 0.00 0.00 74 1013.9
20260507004002 62 295 0.0 1.7 0.00 0.00 0.00 74 1013.9
20260507003459 62 284 0.0 1.7 0.00 0.00 0.00 73 1013.8
20260507003003 62 285 0.0 1.7 0.00 0.00 0.00 72 1013.9
20260507002501 63 295 0.0 1.7 0.00 0.00 0.00 72 1013.9
20260507002003 63 248 0.9 3.5 0.00 0.00 0.00 71 1013.9
20260507001502 63 286 1.7 3.5 0.00 0.00 0.00 71 1013.8
20260507001000 63 289 1.7 2.6 0.00 0.00 0.00 70 1013.9
20260507000502 64 276 1.7 2.6 0.00 0.00 0.00 69 1014.0
20260507000000 64 257 1.7 3.5 0.00 0.00 0.00 69 1013.9
20260506235500 64 280 1.7 4.3 0.00 0.00 0.00 68 1013.9
20260506234000 65 263 2.6 4.3 0.00 0.00 0.00 66 1013.9
20260506233500 65 261 2.6 7.8 0.00 0.00 0.00 66 1013.9
20260506232959 66 283 3.5 7.0 0.00 0.00 0.00 66 1013.9
20260506231459 66 269 3.5 7.8 0.00 0.00 0.00 64 1013.8
20260506230959 66 266 2.6 7.8 0.00 0.00 0.00 64 1013.8
20260506230500 66 267 2.6 5.2 0.00 0.00 0.00 63 1013.8
20260506230003 66 265 2.6 6.1 0.00 0.00 0.00 62 1013.7
20260506225502 66 271 2.6 6.1 0.00 0.00 0.00 62 1013.6
20260506225000 66 319 2.6 7.8 0.00 0.00 0.00 61 1013.6
20260506224458 66 252 2.6 7.0 0.00 0.00 0.00 61 1013.5
20260506223503 66 265 4.3 8.7 0.00 0.00 0.00 61 1013.3
20260506222958 67 257 3.5 7.0 0.00 0.00 0.00 60 1013.1
20260506222459 66 219 3.5 6.1 0.00 0.00 0.00 60 1013.0
20260506222000 66 216 2.6 6.1 0.00 0.00 0.00 60 1013.1
20260506221502 66 213 1.7 5.2 0.00 0.00 0.00 60 1013.0
20260506221001 66 207 1.7 3.5 0.00 0.00 0.00 60 1013.1
20260506220459 67 219 2.6 4.3 0.00 0.00 0.00 60 1013.0
20260506220003 67 207 2.6 4.3 0.00 0.00 0.00 60 1013.0
20260506215503 67 245 2.6 4.3 0.00 0.00 0.00 60 1013.0
20260506214503 67 211 2.6 4.3 0.00 0.00 0.00 59 1012.8
20260506214003 67 225 2.6 3.5 0.00 0.00 0.00 59 1012.7
20260506213003 67 257 2.6 3.5 0.00 0.00 0.00 59 1012.7
20260506212503 67 243 2.6 4.3 0.00 0.00 0.00 59 1012.6
20260506212003 67 242 2.6 4.3 0.00 0.00 0.00 59 1012.6
20260506211502 67 232 2.6 4.3 0.00 0.00 0.00 58 1012.7
20260506211003 68 211 2.6 4.3 0.00 0.00 0.00 58 1012.6